STARLINK-4752

decayed
NORAD ID: 53821 Int'l Des: 2022-114 Owner: SPXS Country: US Constellation: starlink
LEOCIRCULAR
グループ

STARLINK-4752について

説明を読み込み中...

高度履歴

Altitude vs Time

uPlot chart will show altitude changes over time

軌道要素

1 53821U 22114D 25229.92053698 .13013728 12130-4 29708-2 0 9995
2 53821 53.2071 43.3892 0008143 305.0497 208.2847 16.29201174162869
Epoch: Aug 17, 2025 • Age: 694 hours

現在のステータス

Position data unavailable
打ち上げ日 Sep 19, 2022
運用期間 2.9 years
落下予定日 Aug 18, 2025
タイプ internet

技術仕様

分類 Payload
質量 305.00 kg
乾燥質量 290.00 kg
総質量 305.00 kg
長さ 0.20 m
直径 2.80 m
スパン 9.00 m
形状 Box + pan
製造者 SPXS
バスタイプ Starlink
フェーズステータス Unknown Transfer Status
所有者/国 SPXS/US

大規模コンステレーション

Loading constellations...